Tracking 27371 objects as of 7-Jun-2023
HD Live streaming from Space Station
objects crossing your sky now

COSMOS 2499 DEB

Track COSMOS 2499 DEB now!
10-day predictions


NORAD ID: 55724
Int'l Code: 2014-028AL
Perigee: 1,065.5 km
Apogee: 1,309.5 km
Inclination: 81.9 °
Period: 109.0 minutes
Semi major axis: 7558 km
RCS: Unknown
Launch date: May 23, 2014
Source: Commonwealth of Independent States (former USSR) (CIS)
Launch site: PLESETSK MISSILE AND SPACE COMPLEX (PKMTR)

Note: This is SATELLITE DEBRIS
Your satellite tracking list
Your tracking list is empty




NASA's NSSDC Master Catalog

Two Line Element Set (TLE):
1 55724U 14028AL  23157.59024314  .00007239  00000-0  16499-1 0  9995
2 55724  81.8978 264.5187 0161414  38.2326 323.0114 13.21137008 18515
Source of the keplerian elements: AFSPC